Meteo orario Gojcow

Oggi, 20 Aprile, Martedi

Tempo Temperatura Precipitazioni Vento Pressione Umidità
00:00 +6°C° 0 mm 2 m/s 736 mm Hg 85%
01:00 +5°C° 0 mm 2 m/s 736 mm Hg 86%
02:00 +5°C° 0 mm 2 m/s 736 mm Hg 86%
03:00 +5°C° 0 mm 2 m/s 736 mm Hg 86%
04:00 +5°C° 0 mm 2 m/s 736 mm Hg 86%
05:00 +6°C° 0 mm 2 m/s 736 mm Hg 83%
06:00 +7°C° 0 mm 3 m/s 736 mm Hg 80%
07:00 +8°C° 0 mm 3 m/s 736 mm Hg 77%
08:00 +9°C° 0.2 mm 3 m/s 736 mm Hg 70%
09:00 +11°C° 0.2 mm 3 m/s 736 mm Hg 62%
10:00 +12°C° 0.2 mm 4 m/s 736 mm Hg 55%
11:00 +12°C° 0.1 mm 3 m/s 735 mm Hg 52%
12:00 +13°C° 0.1 mm 3 m/s 735 mm Hg 49%
13:00 +14°C° 0 mm 3 m/s 735 mm Hg 45%
14:00 +13°C° 0 mm 3 m/s 735 mm Hg 49%
15:00 +13°C° 0 mm 3 m/s 735 mm Hg 53%
16:00 +12°C° 0 mm 3 m/s 735 mm Hg 56%
17:00 +12°C° 0 mm 2 m/s 735 mm Hg 61%
18:00 +10°C° 0 mm 2 m/s 735 mm Hg 66%
19:00 +9°C° 0 mm 1 m/s 735 mm Hg 71%
20:00 +9°C° 0 mm 1 m/s 735 mm Hg 73%
21:00 +8°C° 0 mm 1 m/s 735 mm Hg 75%
22:00 +8°C° 0 mm 1 m/s 735 mm Hg 77%
23:00 +8°C° 0 mm 1 m/s 735 mm Hg 77%

Domani, 21 Aprile, Mercoledi

Tempo Temperatura Precipitazioni Vento Pressione Umidità
00:00 +6°C° 0 mm 2 m/s 735 mm Hg 78%
01:00 +6°C° 0 mm 2 m/s 735 mm Hg 78%
02:00 +6°C° 0 mm 2 m/s 734 mm Hg 78%
03:00 +5°C° 0 mm 2 m/s 734 mm Hg 79%
04:00 +5°C° 0 mm 2 m/s 734 mm Hg 79%
05:00 +5°C° 0.1 mm 3 m/s 734 mm Hg 79%
06:00 +8°C° 0.1 mm 3 m/s 734 mm Hg 78%
07:00 +9°C° 0.1 mm 3 m/s 735 mm Hg 78%
08:00 +10°C° 0.5 mm 4 m/s 734 mm Hg 72%
09:00 +12°C° 0.5 mm 4 m/s 734 mm Hg 66%
10:00 +13°C° 0.5 mm 5 m/s 734 mm Hg 60%
11:00 +13°C° 0.6 mm 5 m/s 734 mm Hg 59%
12:00 +14°C° 0.6 mm 5 m/s 734 mm Hg 59%
13:00 +14°C° 0.6 mm 5 m/s 734 mm Hg 58%
14:00 +14°C° 0.3 mm 5 m/s 734 mm Hg 57%
15:00 +14°C° 0.3 mm 4 m/s 734 mm Hg 55%
16:00 +14°C° 0.3 mm 4 m/s 734 mm Hg 54%
17:00 +13°C° 0 mm 3 m/s 734 mm Hg 59%
18:00 +11°C° 0 mm 3 m/s 734 mm Hg 64%
19:00 +9°C° 0 mm 2 m/s 734 mm Hg 69%
20:00 +9°C° 0 mm 2 m/s 734 mm Hg 69%
21:00 +8°C° 0 mm 2 m/s 734 mm Hg 69%
22:00 +8°C° 0 mm 2 m/s 734 mm Hg 69%
23:00 +7°C° 0 mm 2 m/s 734 mm Hg 71%

Dopodomani, 22 Aprile, Giovedi

Tempo Temperatura Precipitazioni Vento Pressione Umidità
00:00 +7°C° 0 mm 3 m/s 734 mm Hg 73%
01:00 +7°C° 0 mm 3 m/s 734 mm Hg 75%
02:00 +5°C° 0 mm 3 m/s 734 mm Hg 79%
03:00 +5°C° 0 mm 3 m/s 734 mm Hg 83%
04:00 +5°C° 0 mm 3 m/s 734 mm Hg 87%
05:00 +5°C° 0 mm 3 m/s 735 mm Hg 84%
06:00 +7°C° 0 mm 3 m/s 735 mm Hg 81%
07:00 +7°C° 0 mm 4 m/s 735 mm Hg 77%
08:00 +6°C° 0.1 mm 4 m/s 736 mm Hg 80%
09:00 +6°C° 0.1 mm 4 m/s 736 mm Hg 83%
10:00 +5°C° 0.1 mm 4 m/s 736 mm Hg 86%
11:00 +5°C° 0.2 mm 4 m/s 736 mm Hg 79%
12:00 +5°C° 0.2 mm 4 m/s 737 mm Hg 71%
13:00 +5°C° 0.2 mm 4 m/s 737 mm Hg 64%
14:00 +6°C° 0 mm 5 m/s 737 mm Hg 58%
15:00 +7°C° 0 mm 5 m/s 737 mm Hg 52%
16:00 +8°C° 0 mm 5 m/s 736 mm Hg 47%
17:00 +6°C° 0 mm 4 m/s 737 mm Hg 51%
18:00 +5°C° 0 mm 3 m/s 737 mm Hg 56%
19:00 +3°C° 0 mm 3 m/s 737 mm Hg 61%
20:00 +3°C° 0 mm 2 m/s 738 mm Hg 64%
21:00 +3°C° 0 mm 2 m/s 738 mm Hg 67%
22:00 +2°C° 0 mm 2 m/s 738 mm Hg 71%
23:00 0°C° 0 mm 3 m/s 738 mm Hg 73%

23 Aprile, Venerdi

Tempo Temperatura Precipitazioni Vento Pressione Umidità
00:00 0°C° 0 mm 3 m/s 738 mm Hg 75%
01:00 0°C° 0 mm 3 m/s 738 mm Hg 77%
02:00 0°C° 0 mm 3 m/s 738 mm Hg 81%
03:00 -1°C° 0 mm 3 m/s 738 mm Hg 86%
04:00 -1°C° 0 mm 3 m/s 738 mm Hg 90%
05:00 0°C° 0 mm 3 m/s 738 mm Hg 81%
06:00 +1°C° 0 mm 4 m/s 739 mm Hg 72%
07:00 +3°C° 0 mm 4 m/s 739 mm Hg 62%
08:00 +4°C° 0.1 mm 4 m/s 739 mm Hg 57%
09:00 +5°C° 0.1 mm 5 m/s 739 mm Hg 52%
10:00 +6°C° 0.1 mm 5 m/s 739 mm Hg 47%
11:00 +5°C° 0.3 mm 6 m/s 739 mm Hg 55%
12:00 +4°C° 0.3 mm 6 m/s 739 mm Hg 64%
13:00 +3°C° 0.3 mm 6 m/s 739 mm Hg 72%
14:00 +4°C° 0.1 mm 6 m/s 739 mm Hg 67%
15:00 +4°C° 0.1 mm 6 m/s 739 mm Hg 61%
16:00 +5°C° 0.1 mm 6 m/s 739 mm Hg 56%
17:00 +3°C° 0 mm 5 m/s 740 mm Hg 62%
18:00 +3°C° 0 mm 4 m/s 740 mm Hg 67%
19:00 +2°C° 0 mm 3 m/s 741 mm Hg 72%
20:00 +2°C° 0 mm 3 m/s 741 mm Hg 75%
21:00 +1°C° 0 mm 3 m/s 741 mm Hg 78%
22:00 0°C° 0 mm 4 m/s 741 mm Hg 81%
23:00 -1°C° 0 mm 4 m/s 741 mm Hg 81%

24 Aprile, Sabato

Tempo Temperatura Precipitazioni Vento Pressione Umidità
00:00 -1°C° 0 mm 4 m/s 741 mm Hg 81%
01:00 -1°C° 0 mm 4 m/s 741 mm Hg 80%
02:00 -2°C° 0 mm 4 m/s 741 mm Hg 81%
03:00 -2°C° 0 mm 4 m/s 741 mm Hg 82%
04:00 -3°C° 0 mm 4 m/s 741 mm Hg 83%
05:00 -2°C° 0 mm 4 m/s 741 mm Hg 75%
06:00 0°C° 0 mm 5 m/s 741 mm Hg 67%
07:00 +1°C° 0 mm 6 m/s 742 mm Hg 59%
08:00 +2°C° 0 mm 6 m/s 742 mm Hg 53%
09:00 +4°C° 0 mm 6 m/s 741 mm Hg 47%
10:00 +5°C° 0 mm 7 m/s 741 mm Hg 42%
11:00 +5°C° 0 mm 6 m/s 741 mm Hg 40%
12:00 +7°C° 0 mm 6 m/s 741 mm Hg 38%
13:00 +7°C° 0 mm 6 m/s 741 mm Hg 36%
14:00 +7°C° 0 mm 6 m/s 740 mm Hg 37%
15:00 +7°C° 0 mm 5 m/s 740 mm Hg 38%
16:00 +7°C° 0 mm 5 m/s 740 mm Hg 40%
17:00 +6°C° 0.3 mm 4 m/s 740 mm Hg 56%
18:00 +4°C° 0.3 mm 3 m/s 740 mm Hg 72%
19:00 +2°C° 0.3 mm 3 m/s 739 mm Hg 89%
20:00 +2°C° 0.1 mm 3 m/s 739 mm Hg 90%
21:00 +1°C° 0.1 mm 4 m/s 739 mm Hg 90%
22:00 0°C° 0.1 mm 4 m/s 739 mm Hg 91%
23:00 0°C° 0.2 mm 4 m/s 739 mm Hg 93%

25 Aprile, Domenica

Tempo Temperatura Precipitazioni Vento Pressione Umidità
00:00 -1°C° 0.2 mm 4 m/s 740 mm Hg 94%
01:00 -1°C° 0.2 mm 5 m/s 740 mm Hg 95%
02:00 -2°C° 0 mm 4 m/s 740 mm Hg 94%
03:00 -2°C° 0 mm 3 m/s 740 mm Hg 93%
04:00 -2°C° 0 mm 3 m/s 740 mm Hg 92%
05:00 -2°C° 0 mm 4 m/s 740 mm Hg 85%
06:00 -1°C° 0 mm 4 m/s 740 mm Hg 79%
07:00 0°C° 0 mm 5 m/s 741 mm Hg 73%
08:00 0°C° 0.1 mm 5 m/s 741 mm Hg 71%
09:00 +1°C° 0.1 mm 5 m/s 741 mm Hg 70%
10:00 +1°C° 0.1 mm 6 m/s 741 mm Hg 68%
11:00 +2°C° 0.1 mm 5 m/s 741 mm Hg 63%
12:00 +3°C° 0.1 mm 5 m/s 741 mm Hg 58%
13:00 +5°C° 0.1 mm 5 m/s 741 mm Hg 53%
14:00 +5°C° 0.2 mm 5 m/s 740 mm Hg 54%
15:00 +5°C° 0.2 mm 5 m/s 740 mm Hg 55%
16:00 +5°C° 0.2 mm 5 m/s 740 mm Hg 55%
17:00 +3°C° 0.2 mm 4 m/s 740 mm Hg 64%
18:00 +2°C° 0.2 mm 3 m/s 740 mm Hg 73%
19:00 +2°C° 0.2 mm 2 m/s 739 mm Hg 81%
20:00 +1°C° 0.1 mm 3 m/s 739 mm Hg 83%
21:00 0°C° 0.1 mm 3 m/s 739 mm Hg 84%
22:00 0°C° 0.1 mm 3 m/s 739 mm Hg 85%
23:00 0°C° 0 mm 3 m/s 739 mm Hg 87%
Mostrare altro

Abbiamo bisogno del tuo consenso

Meteoprog e i nostri fornitori di servizi possono memorizzare e accedere a dati personali come cookie, identificatori di dispositivi o altre tecnologie simili sul tuo dispositivo e possono elaborare tali dati per personalizzare i contenuti e gli annunci, nonché fornire funzionalità dei social media e analizzarne il traffico.

  • Archiviare e/o accedere alle informazioni sul tuo dispositivo

    Cookie, identificatori di dispositivi o altre informazioni possono essere memorizzati o resi accessibili sul tuo dispositivo per le finalità sopra indicate.

  • Annunci e contenuti personalizzati, misurazione di annunci e contenuti, approfondimenti sul pubblico e sviluppo di prodotti

    Gli annunci e i contenuti possono essere personalizzati in base a un profilo. È possibile aggiungere più dati per personalizzare meglio annunci e contenuti. È possibile misurare il rendimento degli annunci e dei contenuti. È possibile ricavare informazioni sul pubblico che ha visto gli annunci e i contenuti. Tali dati possono essere utilizzati per sviluppare o migliorare l'esperienza, i sistemi e il software dell'utente.

Cliccando su “Accetto”, acconsenti all'uso di cookie, identificatori di dispositivo, web beacon o altre tecnologie simili. Puoi modificare le impostazioni nel browser del tuo dispositivo.

Per determinati scopi, è possibile fare affidamento su interessi legali, piuttosto che sul consenso. Puoi approfondire questo argomento consultando la nostra Informativa sulla privacy e sui cookie.